#timestamp,LO_Frequency,Hit 
1504328415.2,286047010.6,N
1504328435.0,286047008.9,N
1504328435.9,286047008.9,N
1504328455.8,286047008.1,N
1504328475.6,286047008.7,N
1504328495.5,286047010.5,P
1504328515.3,286047000.6,N
1504328535.1,286047000.5,N
1504328555.8,286047004.2,N
1504328575.7,286047005.4,N
1504328595.5,286047004.6,N
1504328615.3,286047001.8,N
1504328635.2,286047002.0,N
1504328655.9,286046995.1,N
1504328675.7,286046995.3,N
1504328695.6,286046996.5,N
1504328715.4,286046997.0,N
1504328735.2,286046999.1,N
1504328755.1,286047004.2,N
1504328756.0,286047004.2,N
1504328775.8,286047005.9,N
1504328795.6,286047005.2,N
1504328815.4,286047001.8,N
1504328835.3,286047000.5,N
1504328855.1,286047002.4,N
1504328875.8,286047001.2,N
1504328895.7,286046999.2,N
1504328915.5,286046998.2,N
1504328935.3,286047001.6,N
1504328955.2,286047002.5,N
1504328975.9,286047000.6,N
1504328995.7,286046998.1,N
1504329015.6,286047003.0,N
1504329035.4,286047007.5,N
1504329055.2,286047002.4,N
1504329075.0,286047000.8,N
1504329076.0,286047000.8,N
1504329095.8,286046999.8,N
1504329115.6,286046999.6,N
1504329135.4,286047002.3,N
1504329155.3,286047002.7,N
1504329175.1,286046998.2,N
1504329195.8,286046998.4,N
1504329215.7,286046997.1,N
1504329235.5,286046995.3,N
1504329255.3,286046995.3,N
1504329275.2,286046997.3,N
1504329295.9,286046995.0,N
1504329315.7,286047000.6,N
1504329335.6,286047002.8,N
1504329355.4,286046999.4,N
1504329375.2,286046996.0,N
1504329395.1,286046998.4,N
1504329396.0,286046998.4,N
1504329415.8,286046999.1,N
1504329435.6,286047002.4,N
1504329455.5,286047004.3,N
1504329475.3,286047006.0,N
1504329495.1,286047002.9,N
1504329515.8,286047002.5,N
1504329535.7,286047000.7,N
1504329555.5,286046999.1,N
1504329575.3,286047000.3,N
1504329595.2,286047003.9,N
1504329615.9,286047000.1,N
1504329635.7,286047002.8,N
1504329655.6,286047003.1,N
1504329675.4,286047002.0,N
1504329695.2,286046997.7,N
1504329715.1,286046995.6,N
1504329716.0,286046995.6,N
1504329735.8,286046994.7,N
1504329755.6,286046989.5,P
1504329775.5,286046987.6,N
1504329795.3,286046987.8,N
1504329815.1,286046989.1,N
1504329835.9,286046987.3,N
1504329855.7,286046996.3,N
1504329875.5,286046992.8,N
1504329895.4,286046986.1,P
1504329915.2,286046992.6,N
1504329935.0,286046994.6,N
1504329935.9,286046994.6,N
1504329955.8,286046995.9,N
1504329975.6,286046999.9,N
1504329995.4,286047001.1,N
1504330015.2,286046998.9,N
1504330035.1,286047001.7,N
1504330036.0,286047001.7,N
1504330055.8,286047001.4,N
1504330075.6,286047004.4,N
1504330095.5,286047007.5,N
1504330115.3,286047010.7,N
1504330135.1,286047008.6,N
1504330155.9,286047006.8,N
1504330175.7,286047010.8,N
1504330195.5,286047009.5,N
1504330215.4,286047013.6,N
1504330235.2,286047014.3,N
1504330255.0,286047016.6,N
1504330255.9,286047016.6,N
1504330275.8,286047014.7,N
1504330295.6,286047015.6,N
1504330315.4,286047016.6,N
1504330335.2,286047015.9,N
1504330355.1,286047013.1,N
1504330356.0,286047013.1,N
1504330375.8,286047009.5,N
1504330395.6,286047008.1,N
1504330415.5,286047005.1,N
1504330435.3,286047006.8,N
1504330455.1,286047015.0,N
1504330475.9,286047015.5,N
1504330495.7,286047013.4,N
1504330515.5,286047011.4,N
1504330535.4,286047010.3,N
1504330555.2,286047013.4,N
1504330575.0,286047017.0,P
1504330575.9,286047017.0,P
1504330595.8,286047003.3,N
1504330615.6,286047007.0,N
1504330635.4,286047008.4,N
1504330655.3,286047003.1,N
1504330675.1,286047002.5,N
1504330676.0,286047002.5,N
1504330695.8,286047001.3,N
1504330715.7,286046999.2,N
1504330735.5,286047001.7,N
1504330755.3,286047001.7,N
1504330775.2,286047002.7,N
1504330795.9,286046996.5,N
1504330815.7,286047000.7,N
1504330835.5,286047001.3,N
1504330855.4,286047006.4,N
1504330875.2,286047006.9,N
1504330895.0,286047004.6,N
1504330895.9,286047004.6,N
1504330915.8,286047005.7,N
1504330935.6,286047007.2,N
1504330955.4,286047005.9,N
1504330975.3,286046999.4,N
1504330995.1,286046998.2,N
1504330996.0,286046998.2,N
1504331015.8,286046993.9,N
1504331035.7,286046994.4,N
1504331055.5,286046994.1,N
1504331075.3,286047002.7,N
1504331095.2,286047002.5,N
1504331115.9,286047000.1,N
1504331135.7,286046999.0,N
1504331155.6,286046997.5,N
1504331175.4,286047002.4,N
1504331195.2,286047003.6,N
1504331215.0,286047004.1,N
1504331215.9,286047004.1,N
1504331235.8,286047000.7,N
1504331255.6,286046998.9,N
1504331275.4,286047000.4,N
1504331295.3,286047004.2,N
1504331315.1,286047002.2,N
1504331335.8,286047002.9,N
1504331355.7,286047001.5,N
1504331375.5,286047001.9,N
1504331395.3,286047003.8,N
1504331415.2,286046998.8,N
1504331435.9,286046995.0,N
1504331455.7,286046998.0,N
1504331475.6,286046994.0,N
1504331495.4,286046993.5,N
1504331515.2,286046996.5,N
1504331535.0,286047002.7,N
1504331536.0,286047002.7,N
1504331555.8,286047002.2,N
1504331575.6,286047000.1,N
1504331595.4,286046999.6,N
1504331615.3,286047000.6,N
1504331635.1,286046999.7,N
1504331655.8,286047004.6,N
1504331675.7,286047005.3,N
1504331695.5,286047000.7,N
1504331715.3,286046998.7,N
1504331735.2,286046998.5,N
1504331755.9,286046995.3,N
1504331775.7,286046996.1,N
1504331795.6,286047000.9,N
1504331815.4,286047001.7,N
1504331835.2,286047002.0,N
1504331855.1,286047002.2,N
1504331856.0,286047002.2,N
1504331875.8,286047004.2,N
1504331895.6,286046997.1,N
1504331915.4,286046992.4,N
1504331935.3,286046990.6,N
1504331955.1,286046990.1,N
1504331975.8,286046992.3,N
1504331995.7,286046987.9,N
